Time,TemperatureF,DewpointF,PressureIn,WindDirection,WindDirectionDegrees,WindSpeedMPH,WindSpeedGustMPH,Humidity,HourlyPrecipIn,Conditions,Clouds,dailyrainin,SoftwareType,DateUTC
2013-02-21 00:00:00,13.1,8.6,30.00,NW,310,5.8,5.8,82,0.00,-SN,,0.00,WeatherDisplay:10.37,2013-02-21 05:00:00,
2013-02-21 00:01:00,13.3,8.8,30.00,NW,319,12.7,12.7,82,0.00,-SN,,0.00,WeatherDisplay:10.37,2013-02-21 05:01:00,
2013-02-21 00:06:00,13.3,8.8,30.00,NW,322,10.4,10.4,82,0.00,-SN,,0.00,WeatherDisplay:10.37,2013-02-21 05:06:00,
2013-02-21 00:11:00,13.3,8.8,29.97,WNW,298,10.4,10.4,82,0.00,-SN,,0.00,WeatherDisplay:10.37,2013-02-21 05:11:00,
2013-02-21 00:16:00,13.3,8.8,29.97,WNW,303,11.5,11.5,82,0.00,-SN,,0.00,WeatherDisplay:10.37,2013-02-21 05:16:00,
2013-02-21 00:21:00,13.3,8.8,29.97,WNW,295,10.4,10.4,82,0.00,-SN,,0.00,WeatherDisplay:10.37,2013-02-21 05:21:00,
2013-02-21 00:26:00,13.3,8.8,29.97,NNW,327,15.0,15.0,82,0.00,-SN,,0.00,WeatherDisplay:10.37,2013-02-21 05:26:00,
2013-02-21 00:31:00,13.3,8.8,29.97,NW,305,12.7,12.7,82,0.00,-SN,,0.00,WeatherDisplay:10.37,2013-02-21 05:31:00,
2013-02-21 00:36:00,13.3,8.8,29.97,WNW,298,15.4,15.4,82,0.00,-SN,,0.00,WeatherDisplay:10.37,2013-02-21 05:36:00,
2013-02-21 00:41:00,13.3,8.8,29.97,WNW,297,10.4,10.4,82,0.00,-SN,,0.00,WeatherDisplay:10.37,2013-02-21 05:41:00,
2013-02-21 00:46:00,13.3,8.8,29.97,NW,304,10.4,10.4,82,0.00,-SN,,0.00,WeatherDisplay:10.37,2013-02-21 05:46:00,
2013-02-21 00:51:00,13.3,8.8,29.97,WNW,295,9.2,9.2,82,0.00,-SN,,0.00,WeatherDisplay:10.37,2013-02-21 05:51:00,
2013-02-21 00:56:00,13.3,8.8,29.97,WSW,239,13.8,13.8,82,0.00,-SN,,0.00,WeatherDisplay:10.37,2013-02-21 05:56:00,
2013-02-21 01:01:00,13.3,8.8,29.97,NW,317,10.4,10.4,82,0.00,-SN,,0.00,WeatherDisplay:10.37,2013-02-21 06:01:00,
2013-02-21 01:06:00,13.3,8.8,29.97,WNW,294,11.5,11.5,82,0.00,-SN,,0.00,WeatherDisplay:10.37,2013-02-21 06:06:00,
2013-02-21 01:11:00,13.1,8.6,29.97,NW,310,15.0,15.0,82,0.00,-SN,,0.00,WeatherDisplay:10.37,2013-02-21 06:11:00,
2013-02-21 01:16:00,13.1,8.6,29.97,NW,324,9.2,9.2,82,0.00,-SN,,0.00,WeatherDisplay:10.37,2013-02-21 06:16:00,
2013-02-21 01:21:00,13.1,8.6,29.97,NNW,328,10.4,10.4,82,0.00,-SN,,0.00,WeatherDisplay:10.37,2013-02-21 06:21:00,
2013-02-21 01:26:00,13.1,8.6,29.97,NW,326,9.2,9.2,82,0.00,-SN,,0.00,WeatherDisplay:10.37,2013-02-21 06:26:00,
2013-02-21 01:31:00,13.1,8.6,29.97,NW,320,10.5,10.5,82,0.00,-SN,,0.00,WeatherDisplay:10.37,2013-02-21 06:31:00,
2013-02-21 01:36:00,13.1,8.6,29.97,WNW,303,9.2,9.2,82,0.00,-SN,,0.00,WeatherDisplay:10.37,2013-02-21 06:36:00,
2013-02-21 01:41:00,13.1,8.6,29.97,WNW,298,10.4,10.4,82,0.00,-SN,,0.00,WeatherDisplay:10.37,2013-02-21 06:41:00,
2013-02-21 01:46:00,13.1,8.6,29.97,NW,326,11.5,11.5,82,0.00,-SN,,0.00,WeatherDisplay:10.37,2013-02-21 06:46:00,
2013-02-21 01:51:00,13.1,8.6,29.97,NW,318,11.5,11.5,82,0.00,-SN,,0.00,WeatherDisplay:10.37,2013-02-21 06:51:00,
2013-02-21 01:56:00,13.1,8.6,29.97,NW,321,15.0,15.0,82,0.00,-SN,,0.00,WeatherDisplay:10.37,2013-02-21 06:56:00,
2013-02-21 02:01:00,13.1,8.6,29.97,NNW,334,12.7,12.7,82,0.00,-SN,,0.00,WeatherDisplay:10.37,2013-02-21 07:01:00,
2013-02-21 02:06:00,12.9,8.5,29.97,NNW,343,8.1,8.1,82,0.00,-SN,,0.00,WeatherDisplay:10.37,2013-02-21 07:06:00,
2013-02-21 02:11:00,12.9,8.5,29.97,WNW,286,10.4,10.4,82,0.00,-SN,,0.00,WeatherDisplay:10.37,2013-02-21 07:11:00,
2013-02-21 02:16:00,12.9,8.5,29.97,WNW,298,12.7,12.7,82,0.00,-SN,,0.00,WeatherDisplay:10.37,2013-02-21 07:16:00,
2013-02-21 02:21:00,12.9,8.5,29.97,NW,321,15.0,15.0,82,0.00,-SN,,0.00,WeatherDisplay:10.37,2013-02-21 07:21:00,
2013-02-21 02:26:00,12.9,8.5,29.97,NW,305,12.7,12.7,82,0.00,-SN,,0.00,WeatherDisplay:10.37,2013-02-21 07:26:00,
2013-02-21 02:31:00,12.9,8.5,29.97,NW,319,12.7,12.7,82,0.00,-SN,,0.00,WeatherDisplay:10.37,2013-02-21 07:31:00,
2013-02-21 02:36:00,12.7,8.3,29.97,NNW,328,8.1,8.1,82,0.00,-SN,,0.00,WeatherDisplay:10.37,2013-02-21 07:36:00,
2013-02-21 02:41:00,12.7,8.3,29.97,NW,305,17.3,17.3,82,0.00,-SN,,0.00,WeatherDisplay:10.37,2013-02-21 07:41:00,
2013-02-21 02:46:00,12.7,8.3,29.97,NW,321,11.5,11.5,82,0.00,-SN,,0.00,WeatherDisplay:10.37,2013-02-21 07:46:00,
2013-02-21 02:51:00,12.7,8.3,29.97,WNW,300,17.3,17.3,82,0.00,-SN,,0.00,WeatherDisplay:10.37,2013-02-21 07:51:00,
2013-02-21 02:56:00,12.7,8.3,29.97,WNW,300,11.5,11.5,82,0.00,-SN,,0.00,WeatherDisplay:10.37,2013-02-21 07:56:00,
2013-02-21 03:01:00,12.7,8.3,29.97,WNW,302,12.7,12.7,82,0.00,-SN,,0.00,WeatherDisplay:10.37,2013-02-21 08:01:00,
2013-02-21 03:06:00,12.7,8.3,29.97,NW,310,12.7,12.7,82,0.00,-SN,,0.00,WeatherDisplay:10.37,2013-02-21 08:06:00,
2013-02-21 03:11:00,12.7,8.3,29.97,NW,319,8.3,8.3,82,0.00,-SN,,0.00,WeatherDisplay:10.37,2013-02-21 08:11:00,
2013-02-21 03:16:00,12.7,8.3,29.97,WNW,282,12.7,12.7,82,0.00,-SN,,0.00,WeatherDisplay:10.37,2013-02-21 08:16:00,
2013-02-21 03:21:00,12.9,8.5,29.97,WNW,288,12.7,12.7,82,0.00,-SN,,0.00,WeatherDisplay:10.37,2013-02-21 08:21:00,
2013-02-21 03:26:00,12.9,8.5,29.97,NW,326,10.4,10.4,82,0.00,-SN,,0.00,WeatherDisplay:10.37,2013-02-21 08:26:00,
2013-02-21 03:31:00,12.9,8.5,29.97,NW,325,12.7,12.7,82,0.00,-SN,,0.00,WeatherDisplay:10.37,2013-02-21 08:31:00,
2013-02-21 03:36:00,12.9,8.5,29.97,NW,324,12.7,12.7,82,0.00,-SN,,0.00,WeatherDisplay:10.37,2013-02-21 08:36:00,
2013-02-21 03:41:00,12.9,8.5,29.97,NW,312,12.7,12.7,82,0.00,-SN,,0.00,WeatherDisplay:10.37,2013-02-21 08:41:00,
2013-02-21 03:46:00,12.9,8.5,29.97,NW,313,9.6,9.6,82,0.00,-SN,,0.00,WeatherDisplay:10.37,2013-02-21 08:46:00,
2013-02-21 03:51:00,12.9,8.5,29.97,WNW,294,11.5,11.5,82,0.00,-SN,,0.00,WeatherDisplay:10.37,2013-02-21 08:51:00,
2013-02-21 03:56:00,12.7,8.3,29.97,NW,317,11.5,11.5,82,0.00,-SN,,0.00,WeatherDisplay:10.37,2013-02-21 08:56:00,
2013-02-21 04:01:00,12.7,8.3,29.97,NW,305,11.5,11.5,82,0.00,-SN,,0.00,WeatherDisplay:10.37,2013-02-21 09:01:00,
2013-02-21 04:06:00,12.7,8.3,29.97,NW,305,15.0,15.0,82,0.00,-SN,,0.00,WeatherDisplay:10.37,2013-02-21 09:06:00,
2013-02-21 04:11:00,12.9,8.5,29.97,NW,311,13.8,13.8,82,0.00,-SN,,0.00,WeatherDisplay:10.37,2013-02-21 09:11:00,
2013-02-21 04:16:00,12.7,8.3,29.97,NNW,333,15.0,15.0,82,0.00,-SN,,0.00,WeatherDisplay:10.37,2013-02-21 09:16:00,
2013-02-21 04:21:00,12.9,8.5,29.97,NW,316,11.5,11.5,82,0.00,-SN,,0.00,WeatherDisplay:10.37,2013-02-21 09:21:00,
2013-02-21 04:26:00,12.9,8.5,29.97,NW,319,12.7,12.7,82,0.00,-SN,,0.00,WeatherDisplay:10.37,2013-02-21 09:26:00,
2013-02-21 04:31:00,12.9,8.5,29.97,NNW,332,9.2,9.2,82,0.00,-SN,,0.00,WeatherDisplay:10.37,2013-02-21 09:31:00,
2013-02-21 04:36:00,12.9,8.5,29.97,WNW,297,15.0,15.0,82,0.00,-SN,,0.00,WeatherDisplay:10.37,2013-02-21 09:36:00,
2013-02-21 04:41:00,12.9,8.5,29.97,NW,307,11.5,11.5,82,0.00,-SN,,0.00,WeatherDisplay:10.37,2013-02-21 09:41:00,
2013-02-21 04:46:00,12.9,8.5,29.97,NNW,329,15.0,15.0,82,0.00,-SN,,0.00,WeatherDisplay:10.37,2013-02-21 09:46:00,
2013-02-21 04:51:00,12.9,8.5,29.97,NNW,337,11.5,11.5,82,0.00,-SN,,0.00,WeatherDisplay:10.37,2013-02-21 09:51:00,
2013-02-21 04:56:00,12.9,8.5,29.97,NNW,339,11.5,11.5,82,0.00,-SN,,0.00,WeatherDisplay:10.37,2013-02-21 09:56:00,
2013-02-21 05:01:00,12.9,8.5,29.97,NNW,346,16.1,16.1,82,0.00,-SN,,0.00,WeatherDisplay:10.37,2013-02-21 10:01:00,
2013-02-21 05:06:00,12.9,8.5,29.97,NNW,332,13.8,13.8,82,0.00,-SN,,0.00,WeatherDisplay:10.37,2013-02-21 10:06:00,
2013-02-21 05:11:00,12.9,8.5,30.00,NW,323,15.0,15.0,82,0.00,-SN,,0.00,WeatherDisplay:10.37,2013-02-21 10:11:00,
2013-02-21 05:16:00,13.1,8.6,30.00,NW,308,13.8,13.8,82,0.00,-SN,,0.00,WeatherDisplay:10.37,2013-02-21 10:16:00,
2013-02-21 05:21:00,13.1,8.6,30.00,WNW,291,9.2,9.2,82,0.00,-SN,,0.00,WeatherDisplay:10.37,2013-02-21 10:21:00,
2013-02-21 05:26:00,13.1,8.6,30.00,NNW,328,17.3,17.3,82,0.00,-SN,,0.00,WeatherDisplay:10.37,2013-02-21 10:26:00,
2013-02-21 05:31:00,13.1,8.6,30.00,NW,313,13.2,13.2,82,0.00,-SN,,0.00,WeatherDisplay:10.37,2013-02-21 10:31:00,
2013-02-21 05:36:00,13.1,8.6,30.00,NW,322,10.4,10.4,82,0.00,-SN,,0.00,WeatherDisplay:10.37,2013-02-21 10:36:00,
2013-02-21 05:41:00,13.3,8.8,30.00,NW,311,15.0,15.0,82,0.00,-SN,,0.00,WeatherDisplay:10.37,2013-02-21 10:41:00,
2013-02-21 05:46:00,13.3,8.8,30.00,NW,314,17.3,17.3,82,0.00,-SN,,0.00,WeatherDisplay:10.37,2013-02-21 10:46:00,
2013-02-21 05:51:00,13.3,8.8,30.00,WNW,286,15.0,15.0,82,0.00,-SN,,0.00,WeatherDisplay:10.37,2013-02-21 10:51:00,
2013-02-21 05:56:00,13.3,8.8,30.00,NNW,334,10.4,10.4,82,0.00,-SN,,0.00,WeatherDisplay:10.37,2013-02-21 10:56:00,
2013-02-21 06:01:00,13.5,9.0,30.00,NNW,330,10.5,10.5,82,0.00,-SN,,0.00,WeatherDisplay:10.37,2013-02-21 11:01:00,
2013-02-21 06:06:00,13.5,9.0,30.00,NW,308,15.0,15.0,82,0.00,-SN,,0.00,WeatherDisplay:10.37,2013-02-21 11:06:00,
2013-02-21 06:11:00,13.5,9.0,30.00,North,353,15.0,15.0,82,0.00,-SN,,0.00,WeatherDisplay:10.37,2013-02-21 11:11:00,
2013-02-21 06:16:00,13.5,9.0,30.00,NW,326,15.0,15.0,82,0.00,-SN,,0.00,WeatherDisplay:10.37,2013-02-21 11:16:00,
2013-02-21 06:21:00,13.5,9.0,30.00,NNW,342,15.0,15.0,82,0.00,-SN,,0.00,WeatherDisplay:10.37,2013-02-21 11:21:00,
2013-02-21 06:26:00,13.5,9.0,30.00,NNW,330,12.7,12.7,82,0.00,-SN,,0.00,WeatherDisplay:10.37,2013-02-21 11:26:00,
2013-02-21 06:31:00,13.6,9.2,30.00,WNW,290,17.3,17.3,82,0.00,-SN,,0.00,WeatherDisplay:10.37,2013-02-21 11:31:00,
2013-02-21 06:36:00,13.6,9.2,30.00,NW,324,12.7,12.7,82,0.00,-SN,,0.00,WeatherDisplay:10.37,2013-02-21 11:36:00,
2013-02-21 06:41:00,13.6,9.2,30.00,WNW,299,19.7,19.7,82,0.00,-SN,,0.00,WeatherDisplay:10.37,2013-02-21 11:41:00,
2013-02-21 06:46:00,13.6,9.2,30.00,NW,305,11.5,11.5,82,0.00,-SN,,0.00,WeatherDisplay:10.37,2013-02-21 11:46:00,
2013-02-21 06:51:00,13.6,9.2,30.00,NW,325,12.7,12.7,82,0.00,-SN,,0.00,WeatherDisplay:10.37,2013-02-21 11:51:00,
2013-02-21 06:56:00,13.6,9.2,30.00,NNW,333,12.7,12.7,82,0.00,-SN,,0.00,WeatherDisplay:10.37,2013-02-21 11:56:00,
2013-02-21 07:01:00,13.6,9.2,30.00,NNW,331,19.6,19.6,82,0.00,-SN,,0.00,WeatherDisplay:10.37,2013-02-21 12:01:00,
2013-02-21 07:06:00,13.6,9.2,30.00,NW,323,16.1,16.1,82,0.00,-SN,,0.00,WeatherDisplay:10.37,2013-02-21 12:06:00,
2013-02-21 07:11:00,13.6,9.2,30.03,NW,310,15.4,15.4,82,0.00,-SN,,0.00,WeatherDisplay:10.37,2013-02-21 12:11:00,
2013-02-21 07:16:00,13.6,9.2,30.03,NW,320,12.7,12.7,82,0.00,-SN,,0.00,WeatherDisplay:10.37,2013-02-21 12:16:00,
2013-02-21 07:21:00,13.6,9.2,30.03,NNW,332,15.0,15.0,82,0.00,-SN,,0.00,WeatherDisplay:10.37,2013-02-21 12:21:00,
2013-02-21 07:26:00,13.6,9.2,30.03,NW,317,15.0,15.0,82,0.00,-SN,,0.00,WeatherDisplay:10.37,2013-02-21 12:26:00,
2013-02-21 07:31:00,13.8,9.3,30.03,NW,319,12.7,12.7,82,0.00,-SN,,0.00,WeatherDisplay:10.37,2013-02-21 12:31:00,
2013-02-21 07:36:00,13.8,9.3,30.03,NNW,345,19.6,19.6,82,0.00,-SN,,0.00,WeatherDisplay:10.37,2013-02-21 12:36:00,
2013-02-21 07:41:00,13.8,9.3,30.03,West,279,16.1,16.1,82,0.00,-SN,,0.00,WeatherDisplay:10.37,2013-02-21 12:41:00,
2013-02-21 07:46:00,14.0,10.8,30.03,NNW,327,17.3,17.3,87,0.00,-SN,,0.00,WeatherDisplay:10.37,2013-02-21 12:46:00,
2013-02-21 07:51:00,14.2,10.8,30.03,NNW,328,10.4,10.4,86,0.00,-SN,,0.00,WeatherDisplay:10.37,2013-02-21 12:51:00,
2013-02-21 07:56:00,14.2,11.0,30.03,WNW,288,15.0,15.0,87,0.00,-SN,,0.00,WeatherDisplay:10.37,2013-02-21 12:56:00,
2013-02-21 08:01:00,14.4,11.2,30.03,NW,315,16.1,16.1,87,0.00,-SN,,0.00,WeatherDisplay:10.37,2013-02-21 13:01:00,
2013-02-21 08:06:00,14.4,11.2,30.03,North,357,15.0,15.0,87,0.00,-SN,,0.00,WeatherDisplay:10.37,2013-02-21 13:06:00,
2013-02-21 08:11:00,14.5,11.4,30.03,NNW,335,10.4,10.4,87,0.00,-SN,,0.00,WeatherDisplay:10.37,2013-02-21 13:11:00,
2013-02-21 08:16:00,14.5,11.4,30.03,NW,324,11.5,11.5,87,0.00,-SN,,0.00,WeatherDisplay:10.37,2013-02-21 13:16:00,
2013-02-21 08:21:00,14.7,11.6,30.03,WNW,291,15.4,15.4,87,0.00,-SN,,0.00,WeatherDisplay:10.37,2013-02-21 13:21:00,
2013-02-21 08:26:00,14.9,11.7,30.06,NW,320,11.5,11.5,87,0.00,-SN,,0.00,WeatherDisplay:10.37,2013-02-21 13:26:00,
2013-02-21 08:31:00,14.9,11.7,30.06,NNW,344,10.4,10.4,87,0.00,-SN,,0.00,WeatherDisplay:10.37,2013-02-21 13:31:00,
2013-02-21 08:36:00,15.1,11.9,30.06,NNW,339,12.7,12.7,87,0.00,-SN,,0.00,WeatherDisplay:10.37,2013-02-21 13:36:00,
2013-02-21 08:41:00,15.3,12.1,30.06,North,5,10.4,10.4,87,0.00,-SN,,0.00,WeatherDisplay:10.37,2013-02-21 13:41:00,
2013-02-21 08:46:00,15.4,12.3,30.06,WNW,283,10.9,10.9,87,0.00,-SN,,0.00,WeatherDisplay:10.37,2013-02-21 13:46:00,
2013-02-21 08:51:00,15.4,12.3,30.06,NNW,327,8.7,8.7,87,0.00,-SN,,0.00,WeatherDisplay:10.37,2013-02-21 13:51:00,
2013-02-21 08:56:00,15.8,12.6,30.06,NW,324,10.4,10.4,87,0.00,-SN,,0.00,WeatherDisplay:10.37,2013-02-21 13:56:00,
2013-02-21 09:01:00,16.0,12.8,30.06,West,280,11.5,11.5,87,0.00,-SN,,0.00,WeatherDisplay:10.37,2013-02-21 14:01:00,
2013-02-21 09:06:00,16.0,12.8,30.06,WNW,297,8.3,8.3,87,0.00,-SN,,0.00,WeatherDisplay:10.37,2013-02-21 14:06:00,
2013-02-21 09:11:00,16.2,13.0,30.06,NW,321,12.7,12.7,87,0.00,-SN,,0.00,WeatherDisplay:10.37,2013-02-21 14:11:00,
2013-02-21 09:16:00,16.2,13.0,30.06,North,4,9.2,9.2,87,0.00,-SN,,0.00,WeatherDisplay:10.37,2013-02-21 14:16:00,
2013-02-21 09:21:00,16.5,13.3,30.06,WNW,292,10.9,10.9,87,0.00,-SN,,0.00,WeatherDisplay:10.37,2013-02-21 14:21:00,
2013-02-21 09:26:00,16.9,13.7,30.06,NW,321,17.3,17.3,87,0.00,-SN,,0.00,WeatherDisplay:10.37,2013-02-21 14:26:00,
2013-02-21 09:31:00,17.1,13.9,30.06,NW,308,12.7,12.7,87,0.00,-SN,,0.00,WeatherDisplay:10.37,2013-02-21 14:31:00,
2013-02-21 09:36:00,17.2,14.0,30.06,NW,324,12.7,12.7,87,0.00,-SN,,0.00,WeatherDisplay:10.37,2013-02-21 14:36:00,
2013-02-21 09:41:00,17.4,13.9,30.06,NNW,337,16.1,16.1,86,0.00,-SN,,0.00,WeatherDisplay:10.37,2013-02-21 14:41:00,
2013-02-21 09:46:00,17.4,13.9,30.06,WNW,302,8.1,8.1,86,0.00,-SN,,0.00,WeatherDisplay:10.37,2013-02-21 14:46:00,
2013-02-21 09:51:00,17.6,13.9,30.06,NNW,333,12.7,12.7,85,0.00,-SN,,0.00,WeatherDisplay:10.37,2013-02-21 14:51:00,
2013-02-21 09:56:00,17.8,14.0,30.09,North,353,11.5,11.5,85,0.00,-SN,,0.00,WeatherDisplay:10.37,2013-02-21 14:56:00,
2013-02-21 10:01:00,17.6,13.6,30.09,NNW,346,10.9,10.9,84,0.00,-SN,,0.00,WeatherDisplay:10.37,2013-02-21 15:01:00,
2013-02-21 10:06:00,17.4,13.1,30.09,NNW,346,12.7,12.7,83,0.00,-SN,,0.00,WeatherDisplay:10.37,2013-02-21 15:06:00,
2013-02-21 10:11:00,17.1,12.5,30.09,NW,319,15.0,15.0,82,0.00,-SN,,0.00,WeatherDisplay:10.37,2013-02-21 15:11:00,
2013-02-21 10:16:00,17.2,12.4,30.09,NW,322,15.4,15.4,81,0.00,-SN,,0.00,WeatherDisplay:10.37,2013-02-21 15:16:00,
2013-02-21 10:21:00,17.4,12.6,30.09,WNW,287,15.0,15.0,81,0.00,-SN,,0.00,WeatherDisplay:10.37,2013-02-21 15:21:00,
2013-02-21 10:26:00,17.4,12.3,30.09,NW,311,17.3,17.3,80,0.00,-SN,,0.00,WeatherDisplay:10.37,2013-02-21 15:26:00,
2013-02-21 10:31:00,17.1,11.7,30.09,NW,325,15.0,15.0,79,0.00,-SN,,0.00,WeatherDisplay:10.37,2013-02-21 15:31:00,
2013-02-21 10:36:00,17.4,12.0,30.09,NNW,331,10.9,10.9,79,0.00,-SN,,0.00,WeatherDisplay:10.37,2013-02-21 15:36:00,
2013-02-21 10:41:00,17.6,11.9,30.06,NNW,340,18.4,18.4,78,0.00,-SN,,0.04,WeatherDisplay:10.37,2013-02-21 15:41:00,
2013-02-21 10:46:00,18.5,12.5,30.06,NW,304,10.4,10.4,77,0.04,-SN,,0.04,WeatherDisplay:10.37,2013-02-21 15:46:00,
2013-02-21 10:51:00,18.9,12.5,30.06,NNW,341,15.0,15.0,76,0.04,-SN,,0.04,WeatherDisplay:10.37,2013-02-21 15:51:00,
2013-02-21 10:56:00,18.7,11.5,30.06,NW,316,12.7,12.7,73,0.04,-SN,,0.04,WeatherDisplay:10.37,2013-02-21 15:56:00,
2013-02-21 11:01:00,18.3,10.5,30.06,NW,317,9.2,9.2,71,0.04,-SN,,0.04,WeatherDisplay:10.37,2013-02-21 16:01:00,
2013-02-21 11:06:00,18.5,10.3,30.06,NNW,331,11.5,11.5,70,0.04,-SN,,0.04,WeatherDisplay:10.37,2013-02-21 16:06:00,
2013-02-21 11:11:00,19.2,10.7,30.06,North,350,12.7,12.7,69,0.04,-SN,,0.04,WeatherDisplay:10.37,2013-02-21 16:11:00,
2013-02-21 11:16:00,20.3,11.7,30.06,NW,315,14.1,14.1,69,0.04,-SN,,0.04,WeatherDisplay:10.37,2013-02-21 16:16:00,
2013-02-21 11:21:00,20.8,11.6,30.06,NNW,338,12.7,12.7,67,0.04,-SN,,0.04,WeatherDisplay:10.37,2013-02-21 16:21:00,
2013-02-21 11:26:00,21.0,11.1,30.06,NW,312,16.8,16.8,65,0.04,-SN,,0.04,WeatherDisplay:10.37,2013-02-21 16:26:00,
2013-02-21 11:31:00,22.1,11.8,30.06,NNW,336,8.1,8.1,64,0.04,-SN,,0.04,WeatherDisplay:10.37,2013-02-21 16:31:00,
2013-02-21 11:36:00,22.8,11.7,30.06,NW,317,12.7,12.7,62,0.04,-SN,,0.04,WeatherDisplay:10.37,2013-02-21 16:36:00,
2013-02-21 11:41:00,22.5,10.3,30.09,NW,314,10.4,10.4,59,0.04,-SN,,0.04,WeatherDisplay:10.37,2013-02-21 16:41:00,
2013-02-21 11:46:00,21.7,8.8,30.09,NW,326,9.2,9.2,57,0.00,-SN,,0.04,WeatherDisplay:10.37,2013-02-21 16:46:00,
2013-02-21 11:51:00,21.0,7.8,30.09,West,280,12.7,12.7,56,0.00,-SN,,0.04,WeatherDisplay:10.37,2013-02-21 16:51:00,
2013-02-21 11:56:00,20.1,6.1,30.09,North,0,17.3,17.3,54,0.00,-SN,,0.04,WeatherDisplay:10.37,2013-02-21 16:56:00,
2013-02-21 12:01:00,19.6,5.6,30.09,WNW,299,9.2,9.2,54,0.00,-SN,,0.04,WeatherDisplay:10.37,2013-02-21 17:01:00,
2013-02-21 12:06:00,19.0,5.9,30.09,WNW,288,17.3,17.3,56,0.00,-SN,,0.04,WeatherDisplay:10.37,2013-02-21 17:06:00,
2013-02-21 12:11:00,19.0,6.3,30.09,NW,317,17.3,17.3,57,0.00,-SN,,0.04,WeatherDisplay:10.37,2013-02-21 17:11:00,
2013-02-21 12:16:00,19.4,7.4,30.09,WNW,297,15.0,15.0,59,0.00,-SN,,0.04,WeatherDisplay:10.37,2013-02-21 17:16:00,
2013-02-21 12:21:00,19.4,7.0,30.09,NNW,336,15.0,15.0,58,0.00,OVC,,0.04,WeatherDisplay:10.37,2013-02-21 17:21:00,
2013-02-21 12:26:00,19.2,6.5,30.09,NW,324,15.0,15.0,57,0.00,OVC,,0.04,WeatherDisplay:10.37,2013-02-21 17:26:00,
2013-02-21 12:31:00,18.7,5.6,30.09,NW,307,15.0,15.0,56,0.00,OVC,,0.04,WeatherDisplay:10.37,2013-02-21 17:31:00,
2013-02-21 12:36:00,18.7,6.3,30.09,NNW,340,17.3,17.3,58,0.00,-SN,,0.04,WeatherDisplay:10.37,2013-02-21 17:36:00,
2013-02-21 12:41:00,18.5,6.5,30.09,NNW,348,10.4,10.4,59,0.00,-SN,,0.04,WeatherDisplay:10.37,2013-02-21 17:41:00,
2013-02-21 12:46:00,19.0,7.4,30.09,NNW,329,10.4,10.4,60,0.00,-SN,,0.04,WeatherDisplay:10.37,2013-02-21 17:46:00,
2013-02-21 12:51:00,20.7,9.3,30.09,NW,325,12.7,12.7,61,0.00,OVC,,0.04,WeatherDisplay:10.37,2013-02-21 17:51:00,
2013-02-21 12:56:00,21.0,8.2,30.09,WSW,238,12.7,12.7,57,0.00,OVC,,0.04,WeatherDisplay:10.37,2013-02-21 17:56:00,
2013-02-21 13:01:00,21.7,8.8,30.09,WNW,287,11.5,11.5,57,0.00,-SN,,0.04,WeatherDisplay:10.37,2013-02-21 18:01:00,
2013-02-21 13:06:00,21.7,7.6,30.09,WNW,300,11.5,11.5,54,0.00,-SN,,0.04,WeatherDisplay:10.37,2013-02-21 18:06:00,
2013-02-21 13:11:00,21.6,7.0,30.09,West,263,13.8,13.8,53,0.00,-SN,,0.04,WeatherDisplay:10.37,2013-02-21 18:11:00,
2013-02-21 13:16:00,21.2,6.7,30.09,NNW,335,8.0,8.0,53,0.00,-SN,,0.04,WeatherDisplay:10.37,2013-02-21 18:16:00,
2013-02-21 13:21:00,20.7,6.6,30.09,NNW,331,12.7,12.7,54,0.00,-SN,,0.04,WeatherDisplay:10.37,2013-02-21 18:21:00,
2013-02-21 13:26:00,20.3,6.7,30.09,NW,308,11.8,11.8,55,0.00,-SN,,0.04,WeatherDisplay:10.37,2013-02-21 18:26:00,
2013-02-21 13:31:00,20.3,7.1,30.09,WNW,295,12.7,12.7,56,0.00,-SN,,0.04,WeatherDisplay:10.37,2013-02-21 18:31:00,
2013-02-21 13:36:00,20.3,7.1,30.09,North,10,10.4,10.4,56,0.00,-SN,,0.04,WeatherDisplay:10.37,2013-02-21 18:36:00,
2013-02-21 13:41:00,20.3,7.1,30.09,NNW,331,12.7,12.7,56,0.00,-SN,,0.04,WeatherDisplay:10.37,2013-02-21 18:41:00,
2013-02-21 13:46:00,20.5,7.3,30.09,North,357,10.9,10.9,56,0.00,-SN,,0.04,WeatherDisplay:10.37,2013-02-21 18:46:00,
2013-02-21 13:51:00,20.3,7.1,30.09,WNW,293,12.7,12.7,56,0.00,-SN,,0.04,WeatherDisplay:10.37,2013-02-21 18:51:00,
2013-02-21 13:56:00,20.3,6.7,30.09,WNW,293,10.4,10.4,55,0.00,-SN,,0.04,WeatherDisplay:10.37,2013-02-21 18:56:00,
2013-02-21 14:01:00,20.5,7.3,30.09,WNW,295,10.5,10.5,56,0.00,-SN,,0.04,WeatherDisplay:10.37,2013-02-21 19:01:00,
2013-02-21 14:06:00,20.5,7.3,30.09,NW,323,12.7,12.7,56,0.00,-SN,,0.04,WeatherDisplay:10.37,2013-02-21 19:06:00,
2013-02-21 14:11:00,20.5,6.9,30.09,NW,326,15.0,15.0,55,0.00,-SN,,0.04,WeatherDisplay:10.37,2013-02-21 19:11:00,
2013-02-21 14:16:00,20.3,6.7,30.09,NW,312,11.5,11.5,55,0.00,-SN,,0.04,WeatherDisplay:10.37,2013-02-21 19:16:00,
2013-02-21 14:21:00,20.3,7.1,30.09,NW,311,11.5,11.5,56,0.00,-SN,,0.04,WeatherDisplay:10.37,2013-02-21 19:21:00,
2013-02-21 14:26:00,20.5,7.6,30.09,NNW,332,11.5,11.5,57,0.00,-SN,,0.04,WeatherDisplay:10.37,2013-02-21 19:26:00,
2013-02-21 14:31:00,20.3,7.5,30.09,NNW,334,12.3,12.3,57,0.00,-SN,,0.04,WeatherDisplay:10.37,2013-02-21 19:31:00,
2013-02-21 14:36:00,20.1,7.3,30.09,NNW,341,12.7,12.7,57,0.00,-SN,,0.04,WeatherDisplay:10.37,2013-02-21 19:36:00,
2013-02-21 14:41:00,19.8,7.0,30.09,NNW,333,8.1,8.1,57,0.00,-SN,,0.04,WeatherDisplay:10.37,2013-02-21 19:41:00,
2013-02-21 14:46:00,19.6,7.2,30.09,NW,323,9.6,9.6,58,0.00,-SN,,0.04,WeatherDisplay:10.37,2013-02-21 19:46:00,
2013-02-21 14:51:00,19.9,7.9,30.09,NNW,332,15.4,15.4,59,0.00,-SN,,0.04,WeatherDisplay:10.37,2013-02-21 19:51:00,
2013-02-21 14:56:00,21.0,8.5,30.09,WNW,285,12.7,12.7,58,0.00,-SN,,0.04,WeatherDisplay:10.37,2013-02-21 19:56:00,
2013-02-21 15:01:00,22.1,9.6,30.09,NW,321,11.5,11.5,58,0.00,OVC,,0.04,WeatherDisplay:10.37,2013-02-21 20:01:00,
2013-02-21 15:06:00,22.6,9.3,30.09,NNW,332,6.3,6.3,56,0.00,OVC,,0.04,WeatherDisplay:10.37,2013-02-21 20:06:00,
2013-02-21 15:11:00,22.3,7.3,30.09,NNW,341,16.1,16.1,52,0.00,OVC,,0.04,WeatherDisplay:10.37,2013-02-21 20:11:00,
2013-02-21 15:16:00,21.2,5.4,30.09,North,353,8.1,8.1,50,0.00,OVC,,0.04,WeatherDisplay:10.37,2013-02-21 20:16:00,
2013-02-21 15:21:00,20.1,5.7,30.09,NW,321,11.5,11.5,53,0.00,OVC,,0.04,WeatherDisplay:10.37,2013-02-21 20:21:00,
2013-02-21 15:26:00,19.6,5.6,30.12,NW,314,11.5,11.5,54,0.00,OVC,,0.04,WeatherDisplay:10.37,2013-02-21 20:26:00,
2013-02-21 15:31:00,20.5,6.4,30.12,NW,321,9.2,9.2,54,0.00,OVC,,0.04,WeatherDisplay:10.37,2013-02-21 20:31:00,
2013-02-21 15:36:00,21.2,6.3,30.12,NNW,328,11.5,11.8,52,0.00,OVC,,0.04,WeatherDisplay:10.37,2013-02-21 20:36:00,
2013-02-21 15:41:00,21.7,5.9,30.09,WNW,289,12.7,12.7,50,0.00,OVC,,0.04,WeatherDisplay:10.37,2013-02-21 20:41:00,
2013-02-21 15:46:00,22.1,5.8,30.09,NNW,337,8.1,8.1,49,0.00,OVC,,0.04,WeatherDisplay:10.37,2013-02-21 20:46:00,
2013-02-21 15:51:00,21.0,4.8,30.09,North,1,11.5,11.5,49,0.00,OVC,,0.04,WeatherDisplay:10.37,2013-02-21 20:51:00,
2013-02-21 15:56:00,19.9,4.7,30.09,NNW,333,10.4,10.4,51,0.00,OVC,,0.04,WeatherDisplay:10.37,2013-02-21 20:56:00,
2013-02-21 16:01:00,20.1,5.7,30.09,NW,316,11.5,11.5,53,0.00,OVC,,0.04,WeatherDisplay:10.37,2013-02-21 21:01:00,
2013-02-21 16:06:00,20.5,6.0,30.09,NNW,335,12.7,12.7,53,0.00,OVC,,0.04,WeatherDisplay:10.37,2013-02-21 21:06:00,
2013-02-21 16:11:00,20.7,5.8,30.09,NNW,331,11.5,11.5,52,0.00,OVC,,0.04,WeatherDisplay:10.37,2013-02-21 21:11:00,
2013-02-21 16:16:00,20.3,5.9,30.09,NNW,342,12.7,12.7,53,0.00,OVC,,0.04,WeatherDisplay:10.37,2013-02-21 21:16:00,
2013-02-21 16:21:00,20.1,5.7,30.09,NNW,330,9.2,9.2,53,0.00,OVC,,0.04,WeatherDisplay:10.37,2013-02-21 21:21:00,
2013-02-21 16:26:00,19.4,5.4,30.09,NW,310,9.2,9.2,54,0.00,OVC,,0.04,WeatherDisplay:10.37,2013-02-21 21:26:00,
2013-02-21 16:31:00,19.2,5.7,30.09,NNW,340,9.2,9.2,55,0.00,OVC,,0.04,WeatherDisplay:10.37,2013-02-21 21:31:00,
2013-02-21 16:36:00,19.0,5.9,30.09,NNW,330,10.4,10.4,56,0.00,OVC,,0.04,WeatherDisplay:10.37,2013-02-21 21:36:00,
2013-02-21 16:41:00,19.4,6.2,30.12,NW,311,10.4,10.4,56,0.00,OVC,,0.04,WeatherDisplay:10.37,2013-02-21 21:41:00,
2013-02-21 16:46:00,19.4,6.2,30.12,NW,325,5.8,5.8,56,0.00,OVC,,0.04,WeatherDisplay:10.37,2013-02-21 21:46:00,
2013-02-21 16:51:00,19.2,6.1,30.12,NNW,344,11.4,11.4,56,0.00,OVC,,0.04,WeatherDisplay:10.37,2013-02-21 21:51:00,
2013-02-21 16:56:00,19.0,5.9,30.12,NNW,338,9.2,9.2,56,0.00,OVC,,0.04,WeatherDisplay:10.37,2013-02-21 21:56:00,
2013-02-21 17:01:00,19.0,6.3,30.12,North,0,9.2,9.2,57,0.00,FEW,,0.04,WeatherDisplay:10.37,2013-02-21 22:01:00,
2013-02-21 17:06:00,18.9,6.1,30.12,NW,304,10.4,10.4,57,0.00,FEW,,0.04,WeatherDisplay:10.37,2013-02-21 22:06:00,
2013-02-21 17:11:00,18.7,6.0,30.12,NW,318,9.2,9.2,57,0.00,FEW,,0.04,WeatherDisplay:10.37,2013-02-21 22:11:00,
2013-02-21 17:16:00,18.5,5.8,30.12,NNW,337,8.1,8.1,57,0.00,FEW,,0.04,WeatherDisplay:10.37,2013-02-21 22:16:00,
2013-02-21 17:21:00,18.3,6.0,30.12,West,269,5.8,5.8,58,0.00,FEW,,0.04,WeatherDisplay:10.37,2013-02-21 22:21:00,
2013-02-21 17:26:00,18.1,5.8,30.12,WNW,298,8.1,8.1,58,0.00,FEW,,0.04,WeatherDisplay:10.37,2013-02-21 22:26:00,
2013-02-21 17:31:00,17.8,5.5,30.12,NW,318,3.5,3.5,58,0.00,FEW,,0.04,WeatherDisplay:10.37,2013-02-21 22:31:00,
2013-02-21 17:36:00,17.4,5.1,30.12,NW,319,3.5,4.0,58,0.00,FEW,,0.04,WeatherDisplay:10.37,2013-02-21 22:36:00,
2013-02-21 17:41:00,17.4,5.5,30.15,WNW,300,8.1,8.1,59,0.00,FEW,,0.04,WeatherDisplay:10.37,2013-02-21 22:41:00,
2013-02-21 17:46:00,17.1,5.5,30.15,NNW,329,8.1,8.1,60,0.00,FEW,,0.04,WeatherDisplay:10.37,2013-02-21 22:46:00,
2013-02-21 17:51:00,16.7,5.2,30.15,NW,312,5.8,5.8,60,0.00,FEW,,0.04,WeatherDisplay:10.37,2013-02-21 22:51:00,
2013-02-21 17:56:00,16.7,5.6,30.15,NW,313,10.4,10.4,61,0.00,FEW,,0.04,WeatherDisplay:10.37,2013-02-21 22:56:00,
2013-02-21 18:01:00,16.5,6.1,30.15,NW,310,9.2,9.2,63,0.00,FEW,,0.04,WeatherDisplay:10.37,2013-02-21 23:01:00,
2013-02-21 18:06:00,16.5,6.5,30.15,NNW,330,6.3,6.3,64,0.00,FEW,,0.04,WeatherDisplay:10.37,2013-02-21 23:06:00,
2013-02-21 18:11:00,16.2,6.1,30.15,NW,312,8.1,8.1,64,0.00,FEW,,0.04,WeatherDisplay:10.37,2013-02-21 23:11:00,
2013-02-21 18:16:00,16.0,5.9,30.15,North,353,9.2,9.2,64,0.00,FEW,,0.04,WeatherDisplay:10.37,2013-02-21 23:16:00,
2013-02-21 18:21:00,16.0,6.3,30.15,NW,316,8.1,8.1,65,0.00,CLR,,0.04,WeatherDisplay:10.37,2013-02-21 23:21:00,
2013-02-21 18:26:00,16.0,6.3,30.18,WNW,301,8.1,8.1,65,0.00,CLR,,0.04,WeatherDisplay:10.37,2013-02-21 23:26:00,
2013-02-21 18:31:00,15.8,6.4,30.18,WNW,303,5.8,5.8,66,0.00,CLR,,0.04,WeatherDisplay:10.37,2013-02-21 23:31:00,
2013-02-21 18:36:00,15.6,5.9,30.18,NW,326,5.8,5.8,65,0.00,CLR,,0.04,WeatherDisplay:10.37,2013-02-21 23:36:00,
2013-02-21 18:41:00,15.3,5.9,30.18,NW,320,3.5,4.0,66,0.00,CLR,,0.04,WeatherDisplay:10.37,2013-02-21 23:41:00,
2013-02-21 18:46:00,15.6,6.9,30.18,NW,317,8.1,8.1,68,0.00,CLR,,0.04,WeatherDisplay:10.37,2013-02-21 23:46:00,
2013-02-21 18:51:00,15.3,6.6,30.18,WNW,289,0.0,0.0,68,0.00,CLR,,0.04,WeatherDisplay:10.37,2013-02-21 23:51:00,
2013-02-21 18:56:00,15.1,6.1,30.18,NW,313,4.0,4.0,67,0.00,CLR,,0.04,WeatherDisplay:10.37,2013-02-21 23:56:00,
2013-02-21 19:01:00,14.7,5.7,30.18,NW,321,0.0,0.0,67,0.00,CLR,,0.04,WeatherDisplay:10.37,2013-02-22 00:01:00,
2013-02-21 19:06:00,14.5,5.6,30.18,NW,312,5.8,5.8,67,0.00,CLR,,0.04,WeatherDisplay:10.37,2013-02-22 00:06:00,
2013-02-21 19:11:00,14.7,6.4,30.18,NW,313,5.8,5.8,69,0.00,CLR,,0.04,WeatherDisplay:10.37,2013-02-22 00:11:00,
2013-02-21 19:16:00,15.1,7.7,30.18,NW,305,5.8,5.8,72,0.00,CLR,,0.04,WeatherDisplay:10.37,2013-02-22 00:16:00,
2013-02-21 19:21:00,14.9,7.5,30.18,WNW,300,3.6,4.0,72,0.00,CLR,,0.04,WeatherDisplay:10.37,2013-02-22 00:21:00,
2013-02-21 19:26:00,14.5,6.5,30.18,WNW,298,5.8,5.8,70,0.00,CLR,,0.04,WeatherDisplay:10.37,2013-02-22 00:26:00,
2013-02-21 19:31:00,14.2,5.9,30.18,NW,321,3.5,3.5,69,0.00,CLR,,0.04,WeatherDisplay:10.37,2013-02-22 00:31:00,
2013-02-21 19:36:00,13.8,5.8,30.18,NW,314,0.0,0.0,70,0.00,CLR,,0.04,WeatherDisplay:10.37,2013-02-22 00:36:00,
2013-02-21 19:41:00,13.6,5.7,30.18,NW,325,4.6,4.6,70,0.00,CLR,,0.04,WeatherDisplay:10.37,2013-02-22 00:41:00,
2013-02-21 19:46:00,14.0,6.6,30.18,NNW,335,5.8,5.8,72,0.00,CLR,,0.04,WeatherDisplay:10.37,2013-02-22 00:46:00,
2013-02-21 19:51:00,13.8,6.8,30.18,NNW,331,5.8,5.8,73,0.00,CLR,,0.04,WeatherDisplay:10.37,2013-02-22 00:51:00,
2013-02-21 19:56:00,14.0,7.2,30.18,NNW,340,5.8,5.8,74,0.00,CLR,,0.04,WeatherDisplay:10.37,2013-02-22 00:56:00,
2013-02-21 20:01:00,13.8,7.1,30.18,NNW,331,5.8,0.0,74,0.00,CLR,,0.04,WeatherDisplay:10.37,2013-02-22 01:01:00,
2013-02-21 20:06:00,13.8,7.1,30.18,NNW,329,3.1,0.0,74,0.00,CLR,,0.04,WeatherDisplay:10.37,2013-02-22 01:06:00,
2013-02-21 20:11:00,13.5,6.7,30.18,NW,322,5.8,5.8,74,0.00,CLR,,0.04,WeatherDisplay:10.37,2013-02-22 01:11:00,
2013-02-21 20:16:00,13.3,6.5,30.18,NW,312,2.3,0.0,74,0.00,CLR,,0.04,WeatherDisplay:10.37,2013-02-22 01:16:00,
2013-02-21 20:21:00,13.1,6.4,30.18,NW,319,3.5,0.0,74,0.00,CLR,,0.04,WeatherDisplay:10.37,2013-02-22 01:21:00,
2013-02-21 20:26:00,13.1,6.4,30.18,NW,314,0.0,0.0,74,0.00,CLR,,0.04,WeatherDisplay:10.37,2013-02-22 01:26:00,
2013-02-21 20:31:00,12.9,6.2,30.18,NW,306,0.0,0.0,74,0.00,CLR,,0.04,WeatherDisplay:10.37,2013-02-22 01:31:00,
2013-02-21 20:36:00,12.9,6.2,30.18,NW,304,3.5,3.5,74,0.00,CLR,,0.04,WeatherDisplay:10.37,2013-02-22 01:36:00,
2013-02-21 20:41:00,13.1,6.4,30.18,WNW,295,0.0,0.0,74,0.00,CLR,,0.04,WeatherDisplay:10.37,2013-02-22 01:41:00,
2013-02-21 20:46:00,13.5,6.7,30.18,WNW,289,0.0,0.0,74,0.00,CLR,,0.04,WeatherDisplay:10.37,2013-02-22 01:46:00,
2013-02-21 20:51:00,13.3,6.5,30.18,NW,320,0.0,0.0,74,0.00,CLR,,0.04,WeatherDisplay:10.37,2013-02-22 01:51:00,
2013-02-21 20:56:00,13.3,6.5,30.18,NW,312,0.0,0.0,74,0.00,CLR,,0.04,WeatherDisplay:10.37,2013-02-22 01:56:00,
2013-02-21 21:01:00,13.1,6.4,30.18,NW,312,0.0,0.0,74,0.00,CLR,,0.04,WeatherDisplay:10.37,2013-02-22 02:01:00,
2013-02-21 21:06:00,12.7,6.0,30.18,NW,326,0.0,0.0,74,0.00,CLR,,0.04,WeatherDisplay:10.37,2013-02-22 02:06:00,
2013-02-21 21:11:00,12.7,6.0,30.18,NW,322,0.0,0.0,74,0.00,CLR,,0.04,WeatherDisplay:10.37,2013-02-22 02:11:00,
2013-02-21 21:16:00,12.9,6.2,30.18,NNW,346,0.0,0.0,74,0.00,CLR,,0.04,WeatherDisplay:10.37,2013-02-22 02:16:00,
2013-02-21 21:21:00,13.1,6.4,30.18,NW,319,0.0,0.0,74,0.00,CLR,,0.04,WeatherDisplay:10.37,2013-02-22 02:21:00,
2013-02-21 21:26:00,12.6,5.8,30.18,NW,319,0.0,0.0,74,0.00,CLR,,0.04,WeatherDisplay:10.37,2013-02-22 02:26:00,
2013-02-21 21:31:00,12.6,5.8,30.18,NW,319,0.0,0.0,74,0.00,CLR,,0.04,WeatherDisplay:10.37,2013-02-22 02:31:00,
2013-02-21 21:36:00,12.9,6.2,30.18,NW,318,0.0,0.0,74,0.00,CLR,,0.04,WeatherDisplay:10.37,2013-02-22 02:36:00,
2013-02-21 21:42:00,12.7,6.0,30.18,NNW,335,5.8,5.8,74,0.00,CLR,,0.04,WeatherDisplay:10.37,2013-02-22 02:42:00,
2013-02-21 21:47:00,12.2,5.5,30.18,NNW,335,4.0,0.0,74,0.00,CLR,,0.04,WeatherDisplay:10.37,2013-02-22 02:47:00,
2013-02-21 21:52:00,12.2,5.5,30.18,NNW,342,0.0,0.0,74,0.00,CLR,,0.04,WeatherDisplay:10.37,2013-02-22 02:52:00,
2013-02-21 21:57:00,11.7,5.0,30.15,NNW,342,0.0,0.0,74,0.00,CLR,,0.04,WeatherDisplay:10.37,2013-02-22 02:57:00,
2013-02-21 22:02:00,11.7,5.0,30.15,NNW,342,4.6,0.0,74,0.00,CLR,,0.04,WeatherDisplay:10.37,2013-02-22 03:02:00,
2013-02-21 22:07:00,11.1,4.4,30.15,NNW,342,0.0,0.0,74,0.00,CLR,,0.04,WeatherDisplay:10.37,2013-02-22 03:07:00,
2013-02-21 22:12:00,10.9,4.3,30.15,NNW,342,0.0,0.0,74,0.00,CLR,,0.04,WeatherDisplay:10.37,2013-02-22 03:12:00,
2013-02-21 22:17:00,10.4,3.8,30.15,NNW,342,3.5,3.5,74,0.00,CLR,,0.04,WeatherDisplay:10.37,2013-02-22 03:17:00,
2013-02-21 22:22:00,10.4,3.8,30.15,NNW,342,0.0,0.0,74,0.00,CLR,,0.04,WeatherDisplay:10.37,2013-02-22 03:22:00,
2013-02-21 22:27:00,10.6,3.9,30.15,NNW,342,0.0,0.0,74,0.00,CLR,,0.04,WeatherDisplay:10.37,2013-02-22 03:27:00,
2013-02-21 22:32:00,10.4,3.8,30.15,NNW,342,0.0,0.0,74,0.00,CLR,,0.04,WeatherDisplay:10.37,2013-02-22 03:32:00,
2013-02-21 22:37:00,10.4,3.8,30.15,NNW,342,2.3,0.0,74,0.00,CLR,,0.04,WeatherDisplay:10.37,2013-02-22 03:37:00,
2013-02-21 22:42:00,10.4,3.8,30.18,NNW,342,0.0,0.0,74,0.00,CLR,,0.04,WeatherDisplay:10.37,2013-02-22 03:42:00,
2013-02-21 22:47:00,10.2,3.6,30.18,SE,138,5.8,5.8,74,0.00,CLR,,0.04,WeatherDisplay:10.37,2013-02-22 03:47:00,
2013-02-21 22:52:00,10.4,3.8,30.18,SSE,151,0.0,0.0,74,0.00,CLR,,0.04,WeatherDisplay:10.37,2013-02-22 03:52:00,
2013-02-21 22:57:00,10.8,4.1,30.18,SSE,151,0.0,0.0,74,0.00,CLR,,0.04,WeatherDisplay:10.37,2013-02-22 03:57:00,
2013-02-21 23:02:00,10.8,4.1,30.18,SSE,151,0.0,0.0,74,0.00,CLR,,0.04,WeatherDisplay:10.37,2013-02-22 04:02:00,
2013-02-21 23:07:00,10.8,4.1,30.18,ESE,112,4.6,4.6,74,0.00,CLR,,0.04,WeatherDisplay:10.37,2013-02-22 04:07:00,
2013-02-21 23:12:00,10.9,4.3,30.18,SSE,150,3.5,3.6,74,0.00,CLR,,0.04,WeatherDisplay:10.37,2013-02-22 04:12:00,
2013-02-21 23:17:00,10.9,4.3,30.18,SSE,150,3.5,0.0,74,0.00,CLR,,0.04,WeatherDisplay:10.37,2013-02-22 04:17:00,
2013-02-21 23:22:00,10.8,4.1,30.18,SE,137,0.0,0.0,74,0.00,CLR,,0.04,WeatherDisplay:10.37,2013-02-22 04:22:00,
2013-02-21 23:27:00,10.6,3.9,30.15,ESE,122,4.6,4.6,74,0.00,CLR,,0.04,WeatherDisplay:10.37,2013-02-22 04:27:00,
2013-02-21 23:32:00,10.8,4.1,30.15,SSE,149,5.8,5.8,74,0.00,CLR,,0.04,WeatherDisplay:10.37,2013-02-22 04:32:00,
2013-02-21 23:37:00,10.9,4.3,30.15,SE,129,7.6,7.6,74,0.00,CLR,,0.04,WeatherDisplay:10.37,2013-02-22 04:37:00,
2013-02-21 23:42:00,11.3,4.6,30.15,ESE,114,8.1,8.1,74,0.00,CLR,,0.04,WeatherDisplay:10.37,2013-02-22 04:42:00,
2013-02-21 23:47:00,11.8,5.1,30.15,ESE,122,5.8,5.8,74,0.00,CLR,,0.04,WeatherDisplay:10.37,2013-02-22 04:47:00,
2013-02-21 23:52:00,12.6,5.8,30.15,East,101,5.8,5.8,74,0.00,CLR,,0.04,WeatherDisplay:10.37,2013-02-22 04:52:00,
2013-02-21 23:57:00,12.9,6.2,30.15,ESE,110,9.2,9.2,74,0.00,CLR,,0.04,WeatherDisplay:10.37,2013-02-22 04:57:00,